Location: Clatteringshaws Loch
(55.0508°N, 4.2860°W)
Time: 18:59:38
(UTC+01:00)

ALOS - Visible Passes

Search period start: 26 July 2016 00:00
Search period end: 05 August 2016 00:00
Orbit: 685 x 686 km, 97.9° (Epoch: 26 July)

Date Brightness Start Highest point End Pass type
(mag) Time Alt. Az. Time Alt. Az. Time Alt. Az.
28 Jul 5.5 22:36:24 10° W 22:36:43 10° W 22:37:00 10° WNW visible
30 Jul 5.0 22:11:28 10° WSW 22:14:15 15° W 22:17:02 10° NW visible
02 Aug 5.3 22:28:31 10° WSW 22:30:03 11° W 22:31:34 10° WNW visible
04 Aug 4.9 22:04:31 10° SW 22:07:36 17° W 22:10:41 10° NW visible
